When you browse on this site, cookies collect data to enhance your experience and personalize the content and advertising you see.
Visit our Privacy Policy to learn more. By continuing to use the site, you agree to this use of cookies and data.
  • In Hungary
  • List of Countries
  • For 7 days
  • Water Temperature
  • Satellite Maps
  • Weather Map
  • News
  • Weather Widgets
  • user-avatar
    Login

    Hourly Weather Kokopo

    Today, 18 February, Monday

    Time Temperature Precipitation Wind Pressure Humidity
    00:00 +26°C° 1.1 mm 3 mps 751 mmHg 91%
    01:00 +26°C° 1.1 mm 3 mps 751 mmHg 92%
    02:00 +26°C° 0.9 mm 3 mps 751 mmHg 92%
    03:00 +26°C° 0.9 mm 3 mps 751 mmHg 92%
    04:00 +26°C° 0 mm 2 mps 751 mmHg 91%
    05:00 +26°C° 0.9 mm 3 mps 751 mmHg 91%
    06:00 +27°C° 0.9 mm 3 mps 751 mmHg 91%
    07:00 +27°C° 0.9 mm 3 mps 751 mmHg 91%
    08:00 +28°C° 1.4 mm 3 mps 751 mmHg 90%
    09:00 +28°C° 1.4 mm 3 mps 751 mmHg 89%
    10:00 +29°C° 0 mm 4 mps 752 mmHg 88%
    11:00 +29°C° 2.1 mm 4 mps 751 mmHg 89%
    12:00 +29°C° 2.1 mm 4 mps 751 mmHg 89%
    13:00 +29°C° 2.1 mm 5 mps 751 mmHg 90%
    14:00 +28°C° 1.9 mm 4 mps 750 mmHg 90%
    15:00 +28°C° 1.9 mm 4 mps 750 mmHg 91%
    16:00 +28°C° 1.9 mm 4 mps 750 mmHg 91%
    17:00 +27°C° 1.1 mm 4 mps 751 mmHg 92%
    18:00 +27°C° 1.1 mm 4 mps 751 mmHg 92%
    19:00 +27°C° 1.1 mm 3 mps 751 mmHg 93%
    20:00 +27°C° 0.3 mm 3 mps 751 mmHg 93%
    21:00 +26°C° 0.3 mm 3 mps 752 mmHg 93%
    22:00 +26°C° 0.3 mm 3 mps 752 mmHg 92%
    23:00 +26°C° 0.5 mm 3 mps 752 mmHg 93%

    Tomorrow, 19 February, Tuesday

    Time Temperature Precipitation Wind Pressure Humidity
    00:00 +26°C° 0.5 mm 3 mps 751 mmHg 93%
    01:00 +26°C° 0.5 mm 3 mps 751 mmHg 93%
    02:00 +26°C° 1 mm 3 mps 751 mmHg 93%
    03:00 +26°C° 1 mm 3 mps 751 mmHg 93%
    04:00 +26°C° 1 mm 4 mps 751 mmHg 92%
    05:00 +27°C° 0.9 mm 3 mps 751 mmHg 92%
    06:00 +27°C° 0.9 mm 3 mps 751 mmHg 91%
    07:00 +27°C° 0.9 mm 3 mps 751 mmHg 90%
    08:00 +29°C° 0 mm 3 mps 751 mmHg 82%
    09:00 +30°C° 0 mm 3 mps 751 mmHg 74%
    10:00 +33°C° 0 mm 4 mps 751 mmHg 66%
    11:00 +33°C° 0.3 mm 4 mps 751 mmHg 66%
    12:00 +33°C° 0.3 mm 5 mps 750 mmHg 66%
    13:00 +34°C° 0.3 mm 6 mps 750 mmHg 66%
    14:00 +33°C° 1.6 mm 5 mps 749 mmHg 73%
    15:00 +32°C° 1.6 mm 5 mps 749 mmHg 80%
    16:00 +29°C° 1.6 mm 5 mps 749 mmHg 87%
    17:00 +29°C° 1.9 mm 5 mps 749 mmHg 89%
    18:00 +28°C° 1.9 mm 4 mps 750 mmHg 91%
    19:00 +27°C° 1.9 mm 4 mps 750 mmHg 93%
    20:00 +27°C° 0.2 mm 4 mps 751 mmHg 93%
    21:00 +27°C° 0.2 mm 3 mps 751 mmHg 93%
    22:00 +27°C° 0.2 mm 3 mps 752 mmHg 93%
    23:00 +27°C° 1 mm 3 mps 751 mmHg 93%

    Day after tomorrow, 20 February, Wednesday

    Time Temperature Precipitation Wind Pressure Humidity
    00:00 +27°C° 1 mm 4 mps 751 mmHg 93%
    01:00 +27°C° 1 mm 4 mps 751 mmHg 93%
    02:00 +27°C° 2 mm 4 mps 750 mmHg 93%
    03:00 +27°C° 2 mm 4 mps 750 mmHg 93%
    04:00 +27°C° 2 mm 4 mps 750 mmHg 93%
    05:00 +27°C° 2.1 mm 4 mps 750 mmHg 93%
    06:00 +27°C° 2.1 mm 4 mps 751 mmHg 93%
    07:00 +27°C° 2.1 mm 4 mps 751 mmHg 92%
    08:00 +28°C° 1.2 mm 4 mps 751 mmHg 88%
    09:00 +29°C° 1.2 mm 4 mps 751 mmHg 84%
    10:00 +30°C° 1.2 mm 4 mps 751 mmHg 80%
    11:00 +30°C° 1.3 mm 4 mps 750 mmHg 80%
    12:00 +30°C° 1.3 mm 5 mps 750 mmHg 80%
    13:00 +30°C° 1.3 mm 5 mps 749 mmHg 80%
    14:00 +30°C° 2 mm 4 mps 749 mmHg 81%
    15:00 +30°C° 2 mm 4 mps 749 mmHg 82%
    16:00 +30°C° 2 mm 4 mps 748 mmHg 83%
    17:00 +29°C° 1 mm 3 mps 749 mmHg 85%
    18:00 +28°C° 1 mm 3 mps 749 mmHg 87%
    19:00 +27°C° 1 mm 2 mps 750 mmHg 89%
    20:00 +27°C° 0.3 mm 3 mps 750 mmHg 90%
    21:00 +27°C° 0.3 mm 3 mps 751 mmHg 90%
    22:00 +27°C° 0.3 mm 3 mps 751 mmHg 90%
    23:00 +27°C° 0.2 mm 3 mps 751 mmHg 89%

    21 February, Thursday

    Time Temperature Precipitation Wind Pressure Humidity
    00:00 +27°C° 0.2 mm 3 mps 750 mmHg 89%
    01:00 +27°C° 0.2 mm 3 mps 750 mmHg 89%
    02:00 +27°C° 0.1 mm 2 mps 749 mmHg 89%
    03:00 +27°C° 0.1 mm 2 mps 749 mmHg 90%
    04:00 +27°C° 0.1 mm 2 mps 748 mmHg 90%
    05:00 +27°C° 0.4 mm 2 mps 749 mmHg 89%
    06:00 +27°C° 0.4 mm 2 mps 750 mmHg 88%
    07:00 +28°C° 0.4 mm 2 mps 751 mmHg 87%
    08:00 +29°C° 0.9 mm 2 mps 751 mmHg 80%
    09:00 +31°C° 0.9 mm 2 mps 751 mmHg 73%
    10:00 +34°C° 0.9 mm 2 mps 751 mmHg 66%
    11:00 +34°C° 0.2 mm 3 mps 750 mmHg 64%
    12:00 +35°C° 0.2 mm 3 mps 749 mmHg 62%
    13:00 +35°C° 0.2 mm 4 mps 749 mmHg 60%
    14:00 +34°C° 0.6 mm 4 mps 748 mmHg 66%
    15:00 +33°C° 0.6 mm 5 mps 748 mmHg 71%
    16:00 +32°C° 0.6 mm 5 mps 748 mmHg 77%
    17:00 +30°C° 0.6 mm 5 mps 749 mmHg 81%
    18:00 +29°C° 0.6 mm 4 mps 749 mmHg 86%
    19:00 +28°C° 0.6 mm 4 mps 750 mmHg 90%
    20:00 +27°C° 0.1 mm 4 mps 750 mmHg 91%
    21:00 +27°C° 0.1 mm 3 mps 750 mmHg 91%
    22:00 +27°C° 0.1 mm 2 mps 751 mmHg 91%
    23:00 +27°C° 0 mm 2 mps 750 mmHg 92%

    22 February, Friday

    Time Temperature Precipitation Wind Pressure Humidity
    00:00 +26°C° 0 mm 2 mps 750 mmHg 92%
    01:00 +26°C° 0 mm 2 mps 750 mmHg 92%
    02:00 +26°C° 0 mm 2 mps 749 mmHg 92%
    03:00 +26°C° 0 mm 2 mps 749 mmHg 92%
    04:00 +26°C° 0 mm 2 mps 749 mmHg 92%
    05:00 +27°C° 0 mm 1 mps 749 mmHg 91%
    06:00 +27°C° 0 mm 1 mps 750 mmHg 90%
    07:00 +28°C° 0 mm 1 mps 751 mmHg 89%
    08:00 +29°C° 0 mm 1 mps 751 mmHg 81%
    09:00 +31°C° 0 mm 1 mps 751 mmHg 72%
    10:00 +34°C° 0 mm 2 mps 751 mmHg 64%
    11:00 +34°C° 0 mm 2 mps 750 mmHg 62%
    12:00 +34°C° 0 mm 3 mps 750 mmHg 60%
    13:00 +35°C° 0 mm 3 mps 749 mmHg 58%
    14:00 +34°C° 0 mm 3 mps 749 mmHg 61%
    15:00 +33°C° 0 mm 3 mps 749 mmHg 65%
    16:00 +33°C° 0 mm 4 mps 748 mmHg 68%
    17:00 +31°C° 0 mm 3 mps 749 mmHg 74%
    18:00 +29°C° 0 mm 3 mps 750 mmHg 79%
    19:00 +28°C° 0 mm 2 mps 750 mmHg 85%
    20:00 +28°C° 0 mm 2 mps 751 mmHg 86%
    21:00 +27°C° 0 mm 1 mps 751 mmHg 87%
    22:00 +27°C° 0 mm 1 mps 751 mmHg 88%
    23:00 +27°C° 0 mm 1 mps 751 mmHg 89%

    23 February, Saturday

    Time Temperature Precipitation Wind Pressure Humidity
    00:00 +26°C° 0 mm 1 mps 750 mmHg 89%
    01:00 +26°C° 0 mm 1 mps 750 mmHg 90%
    02:00 +26°C° 0 mm 1 mps 750 mmHg 90%
    03:00 +26°C° 0 mm 1 mps 750 mmHg 91%
    04:00 +26°C° 0 mm 1 mps 750 mmHg 91%
    05:00 +26°C° 0 mm 1 mps 750 mmHg 90%
    06:00 +27°C° 0 mm 1 mps 751 mmHg 88%
    07:00 +27°C° 0 mm 1 mps 751 mmHg 86%
    08:00 +29°C° 0 mm 1 mps 751 mmHg 75%
    09:00 +31°C° 0 mm 1 mps 752 mmHg 64%
    10:00 +34°C° 0 mm 1 mps 752 mmHg 53%
    11:00 +34°C° 0 mm 1 mps 751 mmHg 52%
    12:00 +35°C° 0 mm 2 mps 751 mmHg 50%
    13:00 +35°C° 0 mm 2 mps 750 mmHg 49%
    14:00 +35°C° 0 mm 2 mps 750 mmHg 52%
    15:00 +34°C° 0 mm 2 mps 750 mmHg 54%
    16:00 +34°C° 0 mm 2 mps 749 mmHg 57%
    17:00 +31°C° 0 mm 2 mps 750 mmHg 64%
    18:00 +29°C° 0 mm 1 mps 750 mmHg 71%
    19:00 +28°C° 0 mm 1 mps 751 mmHg 79%
    20:00 +27°C° 0 mm 1 mps 751 mmHg 80%
    21:00 +27°C° 0 mm 1 mps 752 mmHg 82%
    22:00 +27°C° 0 mm 1 mps 752 mmHg 84%
    23:00 +27°C° 0 mm 1 mps 752 mmHg 84%
    Show more